Regional Weather Roundup
Issued by NWS State College, PA

Home | Current Version | Previous Version | Graphics & Text | Print | Product List | Glossary On
Versions: 1 2 3 4 5 6 7 8 9 10 11 12 13 14 15 16 17 18 19 20 21 22 23 24 25 26 27 28 29 30 31 32 33 34 35 36 37 38 39 40 41 42 43 44 45 46 47 48 49 50
000
ASUS41 KCTP 200903
RWRCTP

REGIONAL WEATHER ROUNDUP
NATIONAL WEATHER SERVICE STATE COLLEGE PA
400 AM EST TUE FEB 20 2018

Note: "fair" indicates few or no clouds below 12,000 feet with no
significant weather and/or obstructions to visibility.

* = STATION THAT DOES NOT REPORT PRECIPITATION /E.G. RAIN...SNOW...ETC/
    THUNDER OR FOG.

PAZ002>004-007>009-013>016-020>023-029>032-201000-
WESTERN PENNSYLVANIA

CITY           SKY/WX    TMP DP  RH WIND       PRES   REMARKS
ERIE           CLOUDY    64  53  67 S14       30.05S
MEADVILLE      CLOUDY    60  53  77 S10       30.10R
FRANKLIN*      FAIR      59  51  75 SW14G21   30.13R
NEW CASTLE     FAIR      60  54  80 VRB6      30.13S
BEAVER COUNTY  NOT AVBL
BUTLER*        FAIR      60  52  74 SW10      30.16R
PITTSBURGH INT MOCLDY    62  52  69 SW10      30.15R
PITTSBURGH     FAIR      59  49  69 S10       30.16R
INDIANA*       PTCLDY    61  54  77 SW8       30.21S
LATROBE        FAIR      61  54  77 S12       30.19R
WASHINGTON CO* FAIR      62  52  69 S9        30.20R
$$

PAZ004>006-010>012-017>019-024>028-033>037-041-042-045-046-049>053-201000-
CENTRAL PENNSYLVANIA

CITY           SKY/WX    TMP DP  RH WIND       PRES   REMARKS
BRADFORD       CLOUDY    55  51  86 SW8       30.14R
DUBOIS         FAIR      58  49  72 SW12      30.15S
CLEARFIELD     FOG       36  35  96 CALM      30.19R VSB 3/4
JOHNSTOWN      FAIR      58  50  75 SW13      30.20S
ALTOONA        FOG       41  40  96 CALM      30.22S VSB 3/4
STATE COLLEGE  FOG       33  33 100 CALM      30.22S VSB 1/2
WILLIAMSPORT   CLOUDY    43  43 100 VRB6      30.24S
SELINSGROVE    FOG       39  38  96 CALM      30.26F VSB 1/4
FT INDIANTOWN  FOG       40  40 100 CALM      30.29S VSB 1/4
CAPITAL CITY   FOG       44  43  96 CALM      30.28F VSB 1/4
HARRISBURG     FOG       43  41  93 CALM      30.28S VSB 1
YORK           CLOUDY    48  48 100 S5        30.28S
$$

PAZ038>040-043-044-047-048-054-055-060>062-067>071-201000-
EASTERN PENNSYLVANIA

CITY           SKY/WX    TMP DP  RH WIND       PRES   REMARKS
SCRANTON       CLOUDY    41  41 100 CALM      30.24S FOG
MOUNT POCONO   CLOUDY    44  44 100 W8        30.23S
ALLENTOWN      FOG       37  35  92 NW3       30.29F VSB 1/4
QUAKERTOWN*    FOG       37  37 100 CALM      30.29S VSB 0
READING        FOG       39  39 100 NW5       30.29S VSB 1/4
LANCASTER      FOG       44  44 100 SE3       30.29F VSB 1/4
COATESVILLE    FOG       48 N/A N/A VRB3      30.30F VSB<1/4
POTTSTOWN      FOG       43  43 100 CALM      30.31F VSB 1/4
BLUE BELL      CLOUDY    46  46 100 SW5       30.31F
DOYLESTOWN     FOG       46  45  96 SW5       30.29F VSB 3/4
WILLOW GROVE   NOT AVBL
NORTH PHILA    FOG       52  50  93 SW9       30.32F VSB 1/2
PHILADELPHIA   FOG       48  48 100 SW7       30.32F VSB 1/4
$$



USA.gov is the U.S. government's official web portal to all federal, state and local government web resources and services.